Weather History for LGEL - December, 2012

Change the Weather History Date:

Sunday, December 30, 2012

  Actual Average Record
Temperature  
Mean Temperature 50 °F -  
Max Temperature 51 °F 54 °F 66 °F (2000)
Min Temperature 48 °F 40 °F 32 °F (2008)
Degree Days  
Heating Degree Days 16    
Moisture  
Dew Point 44 °F    
Average Humidity 82    
Maximum Humidity 94    
Minimum Humidity 71    
Precipitation  
Precipitation 0.00 in - - ()
Sea Level Pressure  
Sea Level Pressure 30.09 in    
Wind  
Wind Speed 10 mph ()    
Max Wind Speed 18 mph    
Max Gust Speed 28 mph    
Visibility 4.8 miles    
Events Rain    
Averages and records for this station are not official NWS values.
T = Trace of Precipitation, MM = Missing Value Source: Averaged Metar Reports

Daily Weather History Graph

Daily Weather History Graph

Search for Another Location

Airport or City:

Trip Planner

Search our weather history database for the weather conditions in past years. The results will help you decide how hot, cold, wet, or windy it might be!

Date:

Astronomy

Dec. 30, 2012 Rise Set
Actual Time 7:41 AM EET 5:15 PM EET
Civil Twilight 7:12 AM EET 5:44 PM EET
Nautical Twilight 6:39 AM EET 6:17 PM EET
Astronomical Twilight 6:07 AM EET 6:49 PM EET
Moon 7:25 PM EET (12/30) 8:41 AM EET (12/30)
Length of Visible Light 10h 32m
Length of Day
9h 33m
Waning Gibbous, 96% of the Moon is Illuminated
Dec 30
Waning Gibbous
Jan 5
Last Quarter
Jan 11
New
Jan 19
First Quarter
Jan 27
Full

Hourly Weather History & Observations

Time (EET) Temp. Dew Point Humidity Pressure Visibility Wind Dir Wind Speed Gust Speed Precip Events Conditions
12:50 AM 50.0 °F 48.2 °F 94% 30.01 in 4.3 mi NNW 5.8 mph - N/A Rain Light Rain
1:50 AM 50.0 °F 48.2 °F 94% 30.01 in 4.3 mi WNW 3.5 mph - N/A Rain Light Rain
2:50 AM 50.0 °F 48.2 °F 94% 30.04 in 3.7 mi NNW 8.1 mph - N/A Rain Rain
3:50 AM 50.0 °F 48.2 °F 94% 30.04 in 3.7 mi NW 8.1 mph - N/A Rain Rain
4:50 AM 50.0 °F 46.4 °F 87% 30.01 in 3.1 mi NW 12.7 mph - N/A Rain Rain
5:20 AM 50.0 °F 46.4 °F 87% 30.01 in 3.1 mi NW 13.8 mph - N/A Rain Rain
6:20 AM 50.0 °F 46.4 °F 87% 30.04 in 3.7 mi NNW 13.8 mph - N/A Rain Rain
6:50 AM 48.2 °F 44.6 °F 87% 30.04 in 3.1 mi NW 10.4 mph - N/A Rain Heavy Rain
7:20 AM 48.2 °F 44.6 °F 87% 30.04 in 3.1 mi NW 13.8 mph - N/A Rain Rain
7:50 AM 48.2 °F 44.6 °F 87% 30.04 in 3.1 mi NNW 12.7 mph - N/A Rain Rain
8:20 AM 48.2 °F 44.6 °F 87% 30.06 in 4.3 mi NNW 15.0 mph - N/A Rain Rain
8:50 AM 48.2 °F 44.6 °F 87% 30.06 in 3.7 mi NNW 13.8 mph - N/A Rain Rain
9:20 AM 48.2 °F 44.6 °F 87% 30.09 in 3.7 mi NNW 12.7 mph - N/A Rain Rain
9:50 AM 48.2 °F 42.8 °F 82% 30.09 in 3.7 mi NW 11.5 mph - N/A Rain Rain
10:20 AM 48.2 °F 44.6 °F 87% 30.12 in 3.7 mi NW 11.5 mph - N/A Rain Rain
10:50 AM 48.2 °F 44.6 °F 87% 30.12 in 3.7 mi NW 11.5 mph - N/A Rain Rain
11:20 AM 48.2 °F 42.8 °F 82% 30.12 in 3.7 mi WNW 11.5 mph 23.0 mph N/A Rain Rain
11:50 AM 48.2 °F 44.6 °F 87% 30.12 in 3.7 mi WNW 11.5 mph - N/A Rain Rain
12:20 PM 48.2 °F 44.6 °F 87% 30.09 in 3.7 mi WNW 13.8 mph - N/A Rain Rain
12:50 PM 48.2 °F 42.8 °F 82% 30.09 in 3.7 mi NW 11.5 mph - N/A Rain Rain
1:20 PM 50.0 °F 42.8 °F 76% 30.09 in 3.7 mi NW 8.1 mph - N/A Rain Light Rain
1:50 PM 50.0 °F 42.8 °F 76% 30.09 in 4.3 mi NW 6.9 mph - N/A Rain Light Rain
2:20 PM 50.0 °F 44.6 °F 82% 30.09 in 6.2 mi NW 12.7 mph - N/A   Overcast
2:50 PM 51.8 °F 42.8 °F 71% 30.09 in 6.2 mi NW 11.5 mph - N/A   Overcast
3:20 PM 51.8 °F 44.6 °F 76% 30.09 in 6.2 mi NNW 11.5 mph - N/A   Overcast
3:50 PM 51.8 °F 44.6 °F 76% 30.09 in 6.2 mi NNW 12.7 mph - N/A   Mostly Cloudy
4:20 PM 51.8 °F 44.6 °F 76% 30.09 in 6.2 mi NNW 10.4 mph - N/A   Mostly Cloudy
4:50 PM 51.8 °F 44.6 °F 76% 30.09 in 6.2 mi NW 13.8 mph - N/A   Mostly Cloudy
5:20 PM 51.8 °F 44.6 °F 76% 30.09 in 6.2 mi NW 10.4 mph - N/A   Mostly Cloudy
5:50 PM 50.0 °F 44.6 °F 82% 30.09 in 6.2 mi NW 10.4 mph - N/A   Mostly Cloudy
6:20 PM 50.0 °F 44.6 °F 82% 30.12 in 6.2 mi NW 12.7 mph - N/A   Mostly Cloudy
6:50 PM 51.8 °F 44.6 °F 76% 30.12 in 6.2 mi NW 10.4 mph - N/A   Mostly Cloudy
7:20 PM 50.0 °F 42.8 °F 76% 30.15 in 6.2 mi NW 9.2 mph - N/A   Mostly Cloudy
7:50 PM 50.0 °F 42.8 °F 76% 30.15 in 6.2 mi NNW 8.1 mph - N/A   Mostly Cloudy
8:20 PM 50.0 °F 42.8 °F 76% 30.15 in 6.2 mi NNW 15.0 mph - N/A   Mostly Cloudy
8:50 PM 50.0 °F 42.8 °F 76% 30.15 in 6.2 mi NNW 15.0 mph - N/A   Mostly Cloudy
9:20 PM 50.0 °F 42.8 °F 76% 30.15 in 6.2 mi NW 12.7 mph - N/A   Mostly Cloudy
9:50 PM 50.0 °F 42.8 °F 76% 30.15 in 6.2 mi NW 13.8 mph - N/A   Overcast
10:20 PM 50.0 °F 42.8 °F 76% 30.15 in 6.2 mi NW 13.8 mph - N/A   Overcast
10:50 PM 50.0 °F 42.8 °F 76% 30.15 in 6.2 mi NNW 18.4 mph - N/A   Mostly Cloudy
11:50 PM 50.0 °F 42.8 °F 76% 30.12 in 6.2 mi NW 13.8 mph 27.6 mph N/A   Mostly Cloudy